Regional Weather Roundup
Issued by NWS

Home | Current Version | Previous Version | Text Only | Print | Product List | Glossary On
Versions: 1 2 3 4 5 6 7 8 9 10 11 12 13 14 15 16 17 18 19 20 21 22 23 24 25 26 27 28 29 30 31 32 33 34 35 36 37 38 39 40 41 42 43 44 45 46 47 48 49 50
000
ASUS43 KLSX 190710
RWRMO

WEATHER SUMMARY FOR MISSOURI
NATIONAL WEATHER SERVICE SPRINGFIELD MO
200 AM CDT THU APR 19 2018

NOTE: "FAIR" INDICATES FEW OR NO CLOUDS BELOW 12,000 FEET WITH NO
       SIGNIFICANT WEATHER AND/OR OBSTRUCTIONS TO VISIBILITY.
       CURRENT SKY AND/OR WEATHER CONDITIONS ARE NOT AVAILABLE FOR
       CHILLICOTHE AND FARMINGTON.

MOZ001>031-035>038-043-044-053-054-190800-
...NORTHERN AND WESTERN MISSOURI...

CITY           SKY/WX    TMP DP  RH WIND       PRES   REMARKS
KANSAS CTY INT CLOUDY    38  28  67 NW8       30.24R
KANSAS C DTWN  CLOUDY    41  28  60 W8        30.24R
LEE`S SUMMIT   CLOUDY    39  28  64 W8        30.24R
ST JOSEPH      CLOUDY    40  31  70 NW8       30.25R
CHILLICOTHE      N/A     38  30  73 NW6       30.23R
KIRKSVILLE     CLOUDY    31  27  85 NW9       30.19S WCI  23

$$
MOZ066>068-077>081-088>096-101>105-190800-
...SOUTHWEST MISSOURI...

CITY           SKY/WX    TMP DP  RH WIND       PRES   REMARKS
SPRINGFIELD    CLEAR     37  26  64 N10       30.21R WCI  30
JOPLIN         CLEAR     36  27  69 N8        30.27R WCI  30
BRANSON        CLEAR     41  28  60 NW13G18   30.20S

$$
MOZ032>034-039>042-045>050-055>058-069>072-190800-
...CENTRAL MISSOURI...

CITY           SKY/WX    TMP DP  RH WIND       PRES   REMARKS
COLUMBIA       CLOUDY    36  25  64 NW12      30.19R WCI  28
JEFFERSON CITY CLOUDY    38  25  59 NW7       30.20R
ROLLA          CLOUDY    36  23  59 NW13G25   30.17R WCI  27
SEDALIA        CLOUDY    38  28  67 NW6       30.22
WHITEMAN AFB   MOCLDY    35  26  68 W5        30.18R
WARRENSBURG    CLOUDY    36  27  69 W6        30.23S
OSAGE BEACH    CLOUDY    38  25  59 NW8       30.21R

$$
MOZ051-052-059>065-190800-
...EAST CENTRAL MISSOURI...

CITY           SKY/WX    TMP DP  RH WIND       PRES   REMARKS
ST LOUIS INTL  CLOUDY    39  26  59 NW14      30.14R
SPIRIT OF STL  CLOUDY    40  25  55 NW16G28   30.15R
ST CHARLES     CLOUDY    39  26  59 N16G23    30.14R

$$
MOZ072>076-082>087-097>100-106>115-190800-
...SOUTH CENTRAL AND SOUTHEAST MISSOURI...

CITY           SKY/WX    TMP DP  RH WIND       PRES   REMARKS
CAPE GIRARDEAU CLOUDY    45  28  51 NW13      30.11R
FARMINGTON     CLOUDY    40  28  62 NW10G23   30.13R
POPLAR BLUFF   CLOUDY    45  29  53 NW13      30.13S
WEST PLAINS    CLOUDY    42  27  55 NW12      30.15R

$$




USA.gov is the U.S. government's official web portal to all federal, state and local government web resources and services.